Terminal Aerodrome Forecast
Issued by NWS Atlanta, GA

Home | Current Version | Previous Version | Text Only | Print | Product List | Glossary On
Versions: 1 2 3 4 5 6 7 8 9 10 11 12 13 14 15 16 17 18 19 20 21 22 23 24 25 26 27 28 29 30 31 32 33 34 35
000
FTAK31 PAJN 182330
TAFAHN
TAF
PAHN 182330Z 1900/1924 11012KT P6SM -SHRA SCT025 OVC030
      TEMPO 1900/1904 11015G25KT BKN015 OVC030
     FM190600 11010KT 6SM -SHRA BR FEW006 BKN015 OVC030
      AMD LTD TO CLD VIS AND WIND=

USA.gov is the U.S. government's official web portal to all federal, state and local government web resources and services.